| time (UTC) | temp F | wind direction | speed MPH | gust MPH | rain 1hr in | rain 24hr in | rain mn in | humidity % | barometer mb |
| 20260506130746 | 67 | 347 | 5.0 | 7.0 | 0.00 | 0.00 | 0.00 | 58 | 1012.6 |
| 20260506130243 | 67 | 347 | 4.0 | 7.0 | 0.00 | 0.00 | 0.00 | 59 | 1012.9 |
| 20260506125741 | 66 | 328 | 4.0 | 7.0 | 0.00 | 0.00 | 0.00 | 59 | 1012.9 |
| 20260506125239 | 67 | 325 | 6.0 | 8.0 | 0.00 | 0.00 | 0.00 | 59 | 1012.8 |
| 20260506124737 | 67 | 343 | 7.0 | 11.0 | 0.00 | 0.00 | 0.00 | 59 | 1012.9 |
| 20260506124234 | 67 | 18 | 1.0 | 9.0 | 0.00 | 0.00 | 0.00 | 59 | 1012.9 |
| 20260506123732 | 67 | 334 | 7.0 | 10.0 | 0.00 | 0.00 | 0.00 | 59 | 1013.1 |
| 20260506123230 | 67 | 339 | 7.0 | 10.0 | 0.00 | 0.00 | 0.00 | 59 | 1012.9 |
| 20260506122727 | 67 | 352 | 3.0 | 7.0 | 0.00 | 0.00 | 0.00 | 59 | 1013.1 |
| 20260506122224 | 67 | 323 | 8.0 | 9.0 | 0.00 | 0.00 | 0.00 | 59 | 1013.3 |
| 20260506121722 | 67 | 13 | 4.0 | 6.0 | 0.00 | 0.00 | 0.00 | 59 | 1013.2 |
| 20260506121218 | 67 | 345 | 5.0 | 6.0 | 0.00 | 0.00 | 0.00 | 59 | 1013.0 |
| 20260506120716 | 67 | 40 | 3.0 | 7.0 | 0.00 | 0.00 | 0.00 | 61 | 1013.3 |
| 20260506120214 | 67 | 358 | 8.0 | 8.0 | 0.00 | 0.00 | 0.00 | 60 | 1013.2 |
| 20260506115711 | 67 | 33 | 2.0 | 7.0 | 0.00 | 0.00 | 0.00 | 61 | 1013.3 |
| 20260506115209 | 67 | 339 | 4.0 | 7.0 | 0.00 | 0.00 | 0.00 | 62 | 1013.3 |
| 20260506114707 | 67 | 348 | 6.0 | 7.0 | 0.00 | 0.00 | 0.00 | 62 | 1013.4 |
| 20260506114204 | 67 | 355 | 4.0 | 5.0 | 0.00 | 0.00 | 0.00 | 62 | 1013.3 |
| 20260506113703 | 68 | 2 | 4.0 | 6.0 | 0.00 | 0.00 | 0.00 | 62 | 1013.3 |
| 20260506113200 | 67 | 16 | 3.0 | 6.0 | 0.00 | 0.00 | 0.00 | 62 | 1013.5 |
| 20260506112655 | 67 | 32 | 1.0 | 8.0 | 0.00 | 0.00 | 0.00 | 63 | 1013.5 |
| 20260506112154 | 67 | 359 | 3.0 | 9.0 | 0.00 | 0.00 | 0.00 | 63 | 1013.4 |
| 20260506111651 | 66 | 354 | 4.0 | 7.0 | 0.00 | 0.00 | 0.00 | 62 | 1013.6 |
| 20260506111149 | 66 | 344 | 5.0 | 6.0 | 0.00 | 0.00 | 0.00 | 62 | 1013.7 |
| 20260506110646 | 66 | 337 | 4.0 | 8.0 | 0.00 | 0.00 | 0.00 | 64 | 1013.5 |
| 20260506110143 | 66 | 57 | 2.0 | 7.0 | 0.00 | 0.00 | 0.00 | 65 | 1013.7 |
| 20260506105640 | 66 | 6 | 6.0 | 8.0 | 0.00 | 0.00 | 0.00 | 64 | 1013.6 |
| 20260506105137 | 66 | 11 | 1.0 | 7.0 | 0.00 | 0.00 | 0.00 | 64 | 1013.4 |
| 20260506104634 | 67 | 350 | 7.0 | 8.0 | 0.00 | 0.00 | 0.00 | 64 | 1013.4 |
| 20260506104132 | 66 | 351 | 4.0 | 6.0 | 0.00 | 0.00 | 0.00 | 64 | 1013.5 |
| 20260506103629 | 68 | 342 | 8.0 | 9.0 | 0.00 | 0.00 | 0.00 | 61 | 1013.6 |
| 20260506103126 | 67 | 340 | 2.0 | 5.0 | 0.00 | 0.00 | 0.00 | 60 | 1013.5 |
| 20260506102624 | 66 | 342 | 5.0 | 8.0 | 0.00 | 0.00 | 0.00 | 61 | 1013.5 |
| 20260506102121 | 67 | 340 | 6.0 | 8.0 | 0.00 | 0.00 | 0.00 | 60 | 1013.7 |
| 20260506101618 | 67 | 272 | 4.0 | 8.0 | 0.00 | 0.00 | 0.00 | 59 | 1013.5 |
| 20260506101114 | 67 | 352 | 6.0 | 8.0 | 0.00 | 0.00 | 0.00 | 59 | 1013.7 |
| 20260506100613 | 66 | 321 | 3.0 | 7.0 | 0.00 | 0.00 | 0.00 | 60 | 1013.8 |
| 20260506100110 | 66 | 304 | 3.0 | 9.0 | 0.00 | 0.00 | 0.00 | 61 | 1013.9 |
| 20260506095609 | 65 | 336 | 9.0 | 9.0 | 0.00 | 0.00 | 0.00 | 62 | 1013.8 |
| 20260506095105 | 66 | 305 | 4.0 | 5.0 | 0.00 | 0.00 | 0.00 | 63 | 1013.7 |
| 20260506094603 | 66 | 262 | 6.0 | 9.0 | 0.00 | 0.00 | 0.00 | 63 | 1013.6 |
| 20260506094100 | 66 | 275 | 5.0 | 7.0 | 0.00 | 0.00 | 0.00 | 62 | 1013.9 |
| 20260506093559 | 65 | 319 | 3.0 | 6.0 | 0.00 | 0.00 | 0.00 | 63 | 1013.9 |
| 20260506093056 | 65 | 307 | 6.0 | 8.0 | 0.00 | 0.00 | 0.00 | 63 | 1013.7 |
| 20260506092554 | 65 | 245 | 4.0 | 8.0 | 0.00 | 0.00 | 0.00 | 63 | 1013.7 |
| 20260506092050 | 65 | 327 | 3.0 | 6.0 | 0.00 | 0.00 | 0.00 | 64 | 1013.8 |
| 20260506091549 | 65 | 295 | 4.0 | 7.0 | 0.00 | 0.00 | 0.00 | 63 | 1013.9 |
| 20260506091046 | 65 | 349 | 3.0 | 3.0 | 0.00 | 0.00 | 0.00 | 64 | 1013.9 |
| 20260506090543 | 65 | 281 | 4.0 | 7.0 | 0.00 | 0.00 | 0.00 | 64 | 1013.5 |
| 20260506090039 | 66 | 239 | 7.0 | 8.0 | 0.00 | 0.00 | 0.00 | 64 | 1013.8 |
| 20260506085536 | 66 | 319 | 5.0 | 7.0 | 0.00 | 0.00 | 0.00 | 63 | 1013.9 |
| 20260506085033 | 65 | 332 | 7.0 | 8.0 | 0.00 | 0.00 | 0.00 | 63 | 1013.7 |
| 20260506084530 | 66 | 332 | 8.0 | 9.0 | 0.00 | 0.00 | 0.00 | 62 | 1013.8 |
| 20260506084026 | 66 | 254 | 6.0 | 9.0 | 0.00 | 0.00 | 0.00 | 62 | 1013.9 |
| 20260506083523 | 65 | 352 | 3.0 | 6.0 | 0.00 | 0.00 | 0.00 | 62 | 1013.9 |
| 20260506083021 | 66 | 247 | 5.0 | 7.0 | 0.00 | 0.00 | 0.00 | 62 | 1013.9 |
| 20260506082517 | 66 | 243 | 6.0 | 10.0 | 0.00 | 0.00 | 0.00 | 61 | 1013.9 |
| 20260506082013 | 66 | 339 | 5.0 | 14.0 | 0.00 | 0.00 | 0.00 | 62 | 1013.7 |
| 20260506081511 | 66 | 252 | 4.0 | 7.0 | 0.00 | 0.00 | 0.00 | 61 | 1013.7 |
| 20260506081008 | 66 | 257 | 8.0 | 9.0 | 0.00 | 0.00 | 0.00 | 61 | 1013.7 |
| 20260506080506 | 66 | 300 | 5.0 | 8.0 | 0.00 | 0.00 | 0.00 | 60 | 1013.8 |
| 20260506073449 | 65 | 340 | 4.0 | 9.0 | 0.00 | 0.00 | 0.00 | 62 | 1013.7 |
| 20260506072946 | 66 | 245 | 3.0 | 6.0 | 0.00 | 0.00 | 0.00 | 63 | 1013.8 |
| 20260506072443 | 66 | 274 | 3.0 | 5.0 | 0.00 | 0.00 | 0.00 | 63 | 1013.8 |
| 20260506071942 | 66 | 234 | 4.0 | 8.0 | 0.00 | 0.00 | 0.00 | 64 | 1013.8 |
| 20260506071439 | 66 | 285 | 2.0 | 5.0 | 0.00 | 0.00 | 0.00 | 64 | 1013.8 |
| 20260506070936 | 65 | 283 | 7.0 | 9.0 | 0.00 | 0.00 | 0.00 | 63 | 1013.7 |
| 20260506070433 | 65 | 235 | 4.0 | 7.0 | 0.00 | 0.00 | 0.00 | 63 | 1013.8 |
| 20260506062410 | 65 | 103 | 1.0 | 5.0 | 0.00 | 0.00 | 0.00 | 65 | 1013.6 |
| 20260506061906 | 65 | 240 | 8.0 | 9.0 | 0.00 | 0.00 | 0.00 | 65 | 1013.6 |
| 20260506061403 | 64 | 196 | 3.0 | 7.0 | 0.00 | 0.00 | 0.00 | 65 | 1013.5 |
| 20260506060901 | 65 | 255 | 5.0 | 6.0 | 0.00 | 0.00 | 0.00 | 65 | 1013.4 |
| 20260506060359 | 64 | 264 | 2.0 | 5.0 | 0.00 | 0.00 | 0.00 | 65 | 1013.5 |
| 20260506051330 | 64 | 182 | 3.0 | 7.0 | 0.00 | 0.00 | 0.00 | 67 | 1013.2 |
| 20260506050828 | 64 | 244 | 4.0 | 8.0 | 0.00 | 0.00 | 0.00 | 66 | 1013.1 |
| 20260506050325 | 63 | 238 | 3.0 | 7.0 | 0.00 | 0.00 | 0.00 | 67 | 1013.3 |
| 20260506044816 | 63 | 291 | 4.0 | 8.0 | 0.00 | 0.00 | 0.00 | 68 | 1013.0 |
| 20260506044314 | 62 | 242 | 6.0 | 7.0 | 0.00 | 0.00 | 0.00 | 69 | 1012.9 |
| 20260506043810 | 62 | 235 | 5.0 | 7.0 | 0.00 | 0.00 | 0.00 | 70 | 1013.1 |
| 20260506043308 | 62 | 253 | 4.0 | 8.0 | 0.00 | 0.00 | 0.00 | 71 | 1012.9 |
| 20260506042806 | 62 | 239 | 5.0 | 8.0 | 0.00 | 0.00 | 0.00 | 72 | 1012.8 |
| 20260506042305 | 62 | 203 | 5.0 | 6.0 | 0.00 | 0.00 | 0.00 | 73 | 1012.9 |
| 20260506041803 | 61 | 210 | 3.0 | 5.0 | 0.00 | 0.00 | 0.00 | 74 | 1012.6 |
| 20260506041259 | 61 | 213 | 3.0 | 3.0 | 0.00 | 0.00 | 0.00 | 75 | 1012.9 |
| 20260506040757 | 60 | 245 | 3.0 | 5.0 | 0.00 | 0.00 | 0.00 | 75 | 1012.8 |
| 20260506040254 | 60 | 238 | 4.0 | 5.0 | 0.00 | 0.00 | 0.00 | 77 | 1012.8 |
| 20260506035750 | 60 | 149 | 1.0 | 2.0 | 0.00 | 0.00 | 0.00 | 78 | 1012.7 |
| 20260506035248 | 59 | 254 | 1.0 | 2.0 | 0.00 | 0.00 | 0.00 | 78 | 1012.7 |
| 20260506034744 | 59 | 27 | 0.0 | 1.0 | 0.00 | 0.00 | 0.00 | 79 | 1012.5 |
| 20260506034242 | 59 | 27 | 0.0 | 0.0 | 0.00 | 0.00 | 0.00 | 79 | 1012.8 |
| 20260506033739 | 59 | 27 | 0.0 | 1.0 | 0.00 | 0.00 | 0.00 | 79 | 1012.5 |
| 20260506033236 | 59 | 28 | 0.0 | 0.0 | 0.00 | 0.00 | 0.00 | 79 | 1012.3 |
| 20260506032732 | 59 | 28 | 0.0 | 0.0 | 0.00 | 0.00 | 0.00 | 79 | 1012.3 |
| 20260506032229 | 59 | 28 | 0.0 | 0.0 | 0.00 | 0.00 | 0.00 | 79 | 1012.2 |
| 20260506031726 | 59 | 27 | 1.0 | 1.0 | 0.00 | 0.00 | 0.00 | 79 | 1012.0 |
| 20260506031223 | 59 | 28 | 0.0 | 1.0 | 0.00 | 0.00 | 0.00 | 78 | 1012.1 |
| 20260506030721 | 59 | 28 | 0.0 | 1.0 | 0.00 | 0.00 | 0.00 | 78 | 1012.1 |
| 20260506030219 | 59 | 28 | 0.0 | 0.0 | 0.00 | 0.00 | 0.00 | 78 | 1012.2 |
| 20260506025715 | 59 | 28 | 0.0 | 1.0 | 0.00 | 0.00 | 0.00 | 78 | 1012.1 |
| 20260506025212 | 59 | 32 | 0.0 | 0.0 | 0.00 | 0.00 | 0.00 | 78 | 1012.0 |
| 20260506024709 | 59 | 52 | 1.0 | 1.0 | 0.00 | 0.00 | 0.00 | 78 | 1011.7 |
| 20260506024205 | 59 | 64 | 0.0 | 1.0 | 0.00 | 0.00 | 0.00 | 78 | 1011.9 |
| 20260506023701 | 59 | 93 | 0.0 | 0.0 | 0.00 | 0.00 | 0.00 | 78 | 1012.1 |
| 20260506023159 | 59 | 88 | 0.0 | 0.0 | 0.00 | 0.00 | 0.00 | 78 | 1012.0 |
| 20260506022655 | 59 | 86 | 0.0 | 1.0 | 0.00 | 0.00 | 0.00 | 77 | 1012.0 |
| 20260506022153 | 59 | 88 | 2.0 | 2.0 | 0.00 | 0.00 | 0.00 | 77 | 1012.2 |
| 20260506021651 | 59 | 65 | 1.0 | 2.0 | 0.00 | 0.00 | 0.00 | 77 | 1012.0 |
| 20260506021148 | 59 | 90 | 1.0 | 2.0 | 0.00 | 0.00 | 0.00 | 77 | 1011.9 |
| 20260506020640 | 59 | 115 | 1.0 | 2.0 | 0.00 | 0.00 | 0.00 | 77 | 1011.8 |
| 20260506020137 | 59 | 101 | 2.0 | 2.0 | 0.00 | 0.00 | 0.00 | 77 | 1012.0 |
| 20260506015635 | 59 | 80 | 0.0 | 2.0 | 0.00 | 0.00 | 0.00 | 77 | 1011.9 |
| 20260506015131 | 59 | 91 | 0.0 | 1.0 | 0.00 | 0.00 | 0.00 | 77 | 1011.9 |
| 20260506014629 | 59 | 96 | 1.0 | 2.0 | 0.00 | 0.00 | 0.00 | 77 | 1011.8 |
| 20260506014124 | 59 | 89 | 1.0 | 2.0 | 0.00 | 0.00 | 0.00 | 77 | 1011.8 |
| 20260506013623 | 59 | 107 | 3.0 | 3.0 | 0.00 | 0.00 | 0.00 | 77 | 1012.0 |
| 20260506013119 | 59 | 98 | 2.0 | 3.0 | 0.00 | 0.00 | 0.00 | 77 | 1011.8 |
| 20260506012615 | 59 | 113 | 2.0 | 3.0 | 0.00 | 0.00 | 0.00 | 77 | 1012.0 |
| 20260506012112 | 59 | 111 | 1.0 | 3.0 | 0.00 | 0.00 | 0.00 | 77 | 1012.0 |
| 20260506011610 | 59 | 114 | 3.0 | 3.0 | 0.00 | 0.00 | 0.00 | 77 | 1011.8 |
| 20260506011106 | 59 | 93 | 1.0 | 2.0 | 0.00 | 0.00 | 0.00 | 77 | 1011.7 |
| 20260506010605 | 59 | 88 | 1.0 | 1.0 | 0.00 | 0.00 | 0.00 | 77 | 1011.9 |
| 20260506005559 | 59 | 87 | 0.0 | 1.0 | 0.00 | 0.00 | 0.00 | 77 | 1011.9 |
| 20260506005055 | 59 | 87 | 0.0 | 0.0 | 0.00 | 0.00 | 0.00 | 77 | 1011.8 |
| 20260506004552 | 59 | 87 | 0.0 | 1.0 | 0.00 | 0.00 | 0.00 | 77 | 1011.8 |
| 20260506004048 | 59 | 86 | 0.0 | 1.0 | 0.00 | 0.00 | 0.00 | 77 | 1011.8 |
| 20260506003545 | 59 | 82 | 0.0 | 1.0 | 0.00 | 0.00 | 0.00 | 77 | 1011.9 |
| 20260506003041 | 59 | 60 | 0.0 | 0.0 | 0.00 | 0.00 | 0.00 | 77 | 1012.1 |
| 20260506002537 | 59 | 71 | 0.0 | 1.0 | 0.00 | 0.00 | 0.00 | 77 | 1012.0 |
| 20260506002033 | 59 | 62 | 0.0 | 1.0 | 0.00 | 0.00 | 0.00 | 77 | 1012.0 |
| 20260506001530 | 59 | 49 | 0.0 | 1.0 | 0.00 | 0.00 | 0.00 | 77 | 1011.9 |
| 20260506001027 | 59 | 68 | 0.0 | 2.0 | 0.00 | 0.00 | 0.00 | 77 | 1011.9 |
| 20260506000525 | 59 | 76 | 1.0 | 1.0 | 0.00 | 0.00 | 0.00 | 77 | 1012.2 |
| 20260506000022 | 58 | 74 | 0.0 | 1.0 | 0.00 | 0.00 | 0.00 | 77 | 1011.9 |
| 20260505235520 | 59 | 73 | 0.0 | 0.0 | 0.00 | 0.00 | 0.00 | 77 | 1012.1 |
| 20260505235016 | 58 | 74 | 0.0 | 0.0 | 0.00 | 0.00 | 0.00 | 77 | 1012.1 |
| 20260505234513 | 58 | 76 | 0.0 | 1.0 | 0.00 | 0.00 | 0.00 | 78 | 1012.2 |
| 20260505234010 | 58 | 68 | 0.0 | 1.0 | 0.00 | 0.00 | 0.00 | 77 | 1012.1 |
| 20260505233508 | 58 | 72 | 1.0 | 2.0 | 0.00 | 0.00 | 0.00 | 77 | 1012.0 |
| 20260505233005 | 58 | 64 | 0.0 | 1.0 | 0.00 | 0.00 | 0.00 | 77 | 1012.2 |
| 20260505232503 | 58 | 99 | 1.0 | 2.0 | 0.00 | 0.00 | 0.00 | 77 | 1012.1 |
| 20260505232000 | 59 | 105 | 2.0 | 3.0 | 0.00 | 0.00 | 0.00 | 77 | 1012.1 |
| 20260505231457 | 59 | 28 | 0.0 | 1.0 | 0.00 | 0.00 | 0.00 | 76 | 1012.2 |
| 20260505230955 | 59 | 75 | 0.0 | 0.0 | 0.00 | 0.00 | 0.00 | 76 | 1012.3 |
| 20260505230452 | 59 | 75 | 0.0 | 0.0 | 0.00 | 0.00 | 0.00 | 75 | 1012.3 |
| 20260505225948 | 59 | 75 | 0.0 | 0.0 | 0.00 | 0.00 | 0.00 | 75 | 1012.3 |
| 20260505225446 | 59 | 76 | 0.0 | 1.0 | 0.00 | 0.00 | 0.00 | 74 | 1012.3 |
| 20260505224942 | 59 | 88 | 1.0 | 1.0 | 0.00 | 0.00 | 0.00 | 74 | 1012.4 |
| 20260505224439 | 59 | 341 | 0.0 | 0.0 | 0.00 | 0.00 | 0.00 | 73 | 1012.5 |
| 20260505223936 | 60 | 341 | 0.0 | 0.0 | 0.00 | 0.00 | 0.00 | 73 | 1012.3 |
| 20260505223433 | 60 | 341 | 0.0 | 1.0 | 0.00 | 0.00 | 0.00 | 73 | 1012.4 |
| 20260505222929 | 60 | 341 | 0.0 | 1.0 | 0.00 | 0.00 | 0.00 | 73 | 1012.4 |
| 20260505222425 | 60 | 343 | 0.0 | 1.0 | 0.00 | 0.00 | 0.00 | 73 | 1012.6 |
| 20260505221921 | 60 | 340 | 0.0 | 1.0 | 0.00 | 0.00 | 0.00 | 73 | 1012.4 |
| 20260505221419 | 60 | 347 | 0.0 | 0.0 | 0.00 | 0.00 | 0.00 | 73 | 1012.5 |
| 20260505220916 | 60 | 346 | 0.0 | 1.0 | 0.00 | 0.00 | 0.00 | 73 | 1012.6 |
| 20260505220413 | 60 | 349 | 0.0 | 0.0 | 0.00 | 0.00 | 0.00 | 73 | 1012.5 |
| 20260505215911 | 60 | 348 | 0.0 | 1.0 | 0.00 | 0.00 | 0.00 | 73 | 1012.6 |
| 20260505215408 | 60 | 348 | 0.0 | 1.0 | 0.00 | 0.00 | 0.00 | 73 | 1012.7 |
| 20260505214906 | 60 | 347 | 0.0 | 1.0 | 0.00 | 0.00 | 0.00 | 73 | 1012.5 |
| 20260505214403 | 60 | 4 | 0.0 | 0.0 | 0.00 | 0.00 | 0.00 | 73 | 1012.5 |
| 20260505213900 | 60 | 340 | 0.0 | 1.0 | 0.00 | 0.00 | 0.00 | 73 | 1012.5 |
| 20260505213358 | 60 | 0 | 0.0 | 1.0 | 0.00 | 0.00 | 0.00 | 73 | 1012.7 |
| 20260505212854 | 61 | 359 | 0.0 | 1.0 | 0.00 | 0.00 | 0.00 | 74 | 1012.7 |
| 20260505212351 | 61 | 72 | 0.0 | 1.0 | 0.00 | 0.00 | 0.00 | 73 | 1012.7 |
| 20260505211847 | 61 | 45 | 0.0 | 0.0 | 0.00 | 0.00 | 0.00 | 74 | 1012.7 |
| 20260505211345 | 61 | 45 | 1.0 | 1.0 | 0.00 | 0.00 | 0.00 | 74 | 1012.6 |
| 20260505210841 | 61 | 327 | 1.0 | 1.0 | 0.00 | 0.00 | 0.00 | 74 | 1012.9 |
| 20260505210339 | 61 | 4 | 0.0 | 1.0 | 0.00 | 0.00 | 0.00 | 74 | 1012.9 |
| 20260505205835 | 61 | 1 | 0.0 | 1.0 | 0.00 | 0.00 | 0.00 | 74 | 1012.9 |
| 20260505205334 | 61 | 325 | 2.0 | 2.0 | 0.00 | 0.00 | 0.00 | 74 | 1012.8 |
| 20260505204830 | 61 | 4 | 1.0 | 1.0 | 0.00 | 0.00 | 0.00 | 73 | 1012.8 |
| 20260505204328 | 61 | 347 | 0.0 | 2.0 | 0.00 | 0.00 | 0.00 | 73 | 1012.6 |
| 20260505203825 | 61 | 332 | 1.0 | 2.0 | 0.00 | 0.00 | 0.00 | 73 | 1012.8 |
| 20260505203321 | 61 | 321 | 1.0 | 3.0 | 0.00 | 0.00 | 0.00 | 73 | 1013.0 |
| 20260505202818 | 61 | 263 | 4.0 | 5.0 | 0.00 | 0.00 | 0.00 | 73 | 1013.0 |
| 20260505202314 | 61 | 259 | 2.0 | 2.0 | 0.00 | 0.00 | 0.00 | 73 | 1012.8 |
| 20260505201811 | 61 | 275 | 2.0 | 3.0 | 0.00 | 0.00 | 0.00 | 73 | 1012.9 |
| 20260505201308 | 61 | 272 | 1.0 | 3.0 | 0.00 | 0.00 | 0.00 | 73 | 1012.7 |
| 20260505200807 | 61 | 293 | 2.0 | 5.0 | 0.00 | 0.00 | 0.00 | 73 | 1012.8 |
| 20260505200303 | 61 | 12 | 1.0 | 2.0 | 0.00 | 0.00 | 0.00 | 73 | 1012.8 |
| 20260505195758 | 61 | 349 | 1.0 | 3.0 | 0.00 | 0.00 | 0.00 | 73 | 1013.0 |
| 20260505195256 | 61 | 345 | 2.0 | 3.0 | 0.00 | 0.00 | 0.00 | 73 | 1012.8 |
| 20260505194753 | 61 | 346 | 1.0 | 2.0 | 0.00 | 0.00 | 0.00 | 73 | 1012.7 |
| 20260505194250 | 62 | 331 | 2.0 | 3.0 | 0.00 | 0.00 | 0.00 | 73 | 1012.6 |
| 20260505193745 | 62 | 326 | 3.0 | 6.0 | 0.00 | 0.00 | 0.00 | 73 | 1012.7 |
| 20260505193243 | 62 | 282 | 3.0 | 7.0 | 0.00 | 0.00 | 0.00 | 73 | 1012.9 |
| 20260505192741 | 62 | 285 | 6.0 | 10.0 | 0.00 | 0.00 | 0.00 | 73 | 1012.7 |
| 20260505192239 | 62 | 258 | 3.0 | 5.0 | 0.00 | 0.00 | 0.00 | 73 | 1012.7 |
| 20260505191737 | 61 | 280 | 3.0 | 5.0 | 0.00 | 0.00 | 0.00 | 73 | 1012.7 |
| 20260505191235 | 61 | 303 | 1.0 | 5.0 | 0.00 | 0.00 | 0.00 | 73 | 1012.7 |
| 20260505190731 | 61 | 269 | 3.0 | 3.0 | 0.00 | 0.00 | 0.00 | 73 | 1012.7 |
| 20260505190231 | 61 | 239 | 5.0 | 6.0 | 0.00 | 0.00 | 0.00 | 72 | 1012.7 |
| 20260505185728 | 61 | 316 | 2.0 | 3.0 | 0.00 | 0.00 | 0.00 | 72 | 1012.8 |
| 20260505185224 | 61 | 247 | 3.0 | 6.0 | 0.00 | 0.00 | 0.00 | 72 | 1012.6 |
| 20260505184720 | 61 | 258 | 3.0 | 5.0 | 0.00 | 0.00 | 0.00 | 71 | 1012.6 |
| 20260505184218 | 61 | 303 | 2.0 | 3.0 | 0.00 | 0.00 | 0.00 | 71 | 1012.8 |
| 20260505183714 | 61 | 247 | 3.0 | 3.0 | 0.00 | 0.00 | 0.00 | 71 | 1012.8 |
| 20260505183212 | 61 | 314 | 1.0 | 2.0 | 0.00 | 0.00 | 0.00 | 70 | 1012.7 |
| 20260505182708 | 61 | 247 | 4.0 | 5.0 | 0.00 | 0.00 | 0.00 | 70 | 1012.7 |
| 20260505182205 | 61 | 266 | 2.0 | 3.0 | 0.00 | 0.00 | 0.00 | 70 | 1012.8 |
| 20260505181701 | 61 | 317 | 1.0 | 2.0 | 0.00 | 0.00 | 0.00 | 70 | 1012.8 |
| 20260505181159 | 61 | 261 | 2.0 | 3.0 | 0.00 | 0.00 | 0.00 | 69 | 1012.7 |
| 20260505180655 | 61 | 304 | 2.0 | 5.0 | 0.00 | 0.00 | 0.00 | 69 | 1012.6 |
| 20260505180153 | 61 | 264 | 3.0 | 5.0 | 0.00 | 0.00 | 0.00 | 68 | 1012.5 |
| 20260505175648 | 61 | 302 | 2.0 | 3.0 | 0.00 | 0.00 | 0.00 | 68 | 1012.5 |
| 20260505175145 | 61 | 321 | 5.0 | 7.0 | 0.00 | 0.00 | 0.00 | 68 | 1012.5 |
| 20260505174642 | 61 | 252 | 4.0 | 8.0 | 0.00 | 0.00 | 0.00 | 68 | 1012.2 |
| 20260505174138 | 61 | 295 | 5.0 | 10.0 | 0.00 | 0.00 | 0.00 | 69 | 1012.5 |
| 20260505173635 | 62 | 338 | 3.0 | 5.0 | 0.00 | 0.00 | 0.00 | 69 | 1012.2 |
| 20260505173131 | 62 | 277 | 3.0 | 7.0 | 0.00 | 0.00 | 0.00 | 69 | 1012.3 |
| 20260505172629 | 62 | 295 | 2.0 | 5.0 | 0.00 | 0.00 | 0.00 | 69 | 1012.5 |
| 20260505172126 | 62 | 307 | 4.0 | 8.0 | 0.00 | 0.00 | 0.00 | 69 | 1012.4 |
| 20260505171620 | 62 | 247 | 7.0 | 8.0 | 0.00 | 0.00 | 0.00 | 69 | 1012.6 |
| 20260505171118 | 62 | 284 | 3.0 | 6.0 | 0.00 | 0.00 | 0.00 | 69 | 1012.5 |
| 20260505170615 | 62 | 279 | 3.0 | 6.0 | 0.00 | 0.00 | 0.00 | 69 | 1012.3 |
| 20260505170111 | 62 | 324 | 3.0 | 5.0 | 0.00 | 0.00 | 0.00 | 69 | 1012.3 |
| 20260505165606 | 62 | 265 | 3.0 | 6.0 | 0.00 | 0.00 | 0.00 | 68 | 1012.2 |
| 20260505165102 | 62 | 354 | 3.0 | 3.0 | 0.00 | 0.00 | 0.00 | 68 | 1012.2 |
| 20260505164558 | 62 | 263 | 4.0 | 8.0 | 0.00 | 0.00 | 0.00 | 68 | 1012.1 |
| 20260505164056 | 62 | 268 | 5.0 | 8.0 | 0.00 | 0.00 | 0.00 | 68 | 1012.1 |
| 20260505163554 | 62 | 319 | 5.0 | 7.0 | 0.00 | 0.00 | 0.00 | 67 | 1012.4 |
| 20260505163051 | 62 | 305 | 2.0 | 8.0 | 0.00 | 0.00 | 0.00 | 67 | 1012.1 |
| 20260505162544 | 62 | 300 | 4.0 | 7.0 | 0.00 | 0.00 | 0.00 | 67 | 1012.1 |
| 20260505162041 | 62 | 316 | 5.0 | 8.0 | 0.00 | 0.00 | 0.00 | 68 | 1012.3 |
| 20260505161538 | 62 | 258 | 5.0 | 9.0 | 0.00 | 0.00 | 0.00 | 68 | 1012.3 |
| 20260505161035 | 62 | 257 | 8.0 | 9.0 | 0.00 | 0.00 | 0.00 | 68 | 1012.3 |
| 20260505160533 | 62 | 354 | 3.0 | 8.0 | 0.00 | 0.00 | 0.00 | 68 | 1012.2 |
| 20260505153009 | 63 | 248 | 5.0 | 6.0 | 0.00 | 0.00 | 0.00 | 62 | 1012.2 |
| 20260505152506 | 62 | 248 | 4.0 | 11.0 | 0.00 | 0.00 | 0.00 | 62 | 1012.0 |
| 20260505152002 | 63 | 344 | 7.0 | 9.0 | 0.00 | 0.00 | 0.00 | 64 | 1012.1 |
| 20260505151457 | 63 | 246 | 7.0 | 8.0 | 0.00 | 0.00 | 0.00 | 65 | 1012.3 |
| 20260505150955 | 62 | 275 | 7.0 | 11.0 | 0.00 | 0.00 | 0.00 | 66 | 1012.1 |
| 20260505150452 | 63 | 331 | 5.0 | 11.0 | 0.00 | 0.00 | 0.00 | 66 | 1012.1 |
| 20260505140422 | 64 | 286 | 13.0 | 16.0 | 0.00 | 0.00 | 0.00 | 61 | 1011.7 |